[[{"header":{"parameterUnit":"m.s-1","parameterCategory":1,"la1":30.2991,"la2":30.254,"lo1":-89.0895,"lo2":-89.0444,"dy":0.0017,"dx":0.0017,"nx":28,"ny":28,"refTime":"2025-01-29T09:00:00:Z","depth":0,"parameterNumber":2,"parameterNumberName":"U-component_of_WINDS"},"data":[0,0,0,0,0,0,0,0,0,0,0,0,0,0,0,0,0,0,0,0,0,0,0,0,0,0,0,0,0,0,0,0,0,0,0,0,0,0,0,0,0,0,0,0,0,0,0,0,0,0,0,0,0,0,0,0,0,0,-0.5517,-0.5517,0,-0.5508,-0.5507,-0.5507,-0.5485,-0.5485,-0.5484,-0.5484,-0.5474,-0.5474,-0.5474,0,0,0,0,0,0,0,0,0,0,0,0,0,-0.5517,-0.5517,-0.5517,-0.5517,-0.5517,-0.5508,-0.5507,-0.5507,-0.5485,-0.5485,-0.5484,-0.5484,-0.5474,-0.5474,-0.5474,0,0,0,0,0,0,0,0,0,0,0,0,0,-0.5513,-0.5517,-0.5517,-0.5505,-0.5504,-0.5508,-0.5507,-0.5507,-0.5486,-0.5485,-0.5484,-0.5484,-0.5474,-0.5474,-0.5474,-0.5489,0,0,-0.5475,-0.5475,0,0,0,0,0,0,0,0,-0.5513,-0.5513,-0.5507,-0.5506,-0.5505,-0.5497,-0.5504,-0.5501,-0.5486,-0.5492,-0.5484,-0.5483,-0.5482,-0.5482,-0.5481,-0.5489,-0.5488,-0.5475,-0.5475,-0.5475,-0.5475,0,0,0,0,0,0,0,-0.5514,-0.5514,-0.5513,-0.5507,-0.5505,-0.55,-0.5499,-0.5503,-0.5491,-0.5492,-0.549,-0.5489,-0.5481,-0.5481,-0.5481,-0.5488,-0.5475,-0.5475,-0.5475,-0.5475,-0.5508,-0.5509,0,0,0,0,0,0,-0.5516,-0.5514,-0.5514,-0.5513,-0.5507,-0.5501,-0.5499,-0.55,-0.5491,-0.5489,-0.549,-0.5488,-0.5481,-0.5481,-0.548,-0.5498,-0.5475,-0.5475,-0.5475,-0.5507,-0.5508,-0.5509,0,0,0,0,0,0,-0.5516,-0.5516,-0.5514,-0.5513,-0.5512,-0.5501,-0.5503,-0.55,-0.55,-0.549,-0.5487,-0.5492,-0.548,-0.548,-0.5487,-0.5497,-0.5475,-0.5476,-0.5506,-0.5508,-0.5509,-0.5533,0,0,0,0,0,0,-0.5516,-0.5516,-0.5522,-0.5513,-0.5513,-0.5521,-0.5503,-0.5501,-0.5501,-0.5498,-0.5491,-0.5489,-0.548,-0.5487,-0.5488,-0.5497,-0.5476,-0.5505,-0.5507,-0.5508,-0.5531,-0.5534,-0.5537,0,0,0,0,0,-0.5516,-0.5529,-0.5522,-0.5522,-0.5519,-0.5522,-0.5521,-0.5511,-0.5501,-0.5507,-0.55,-0.5489,-0.5496,-0.5488,-0.5488,-0.5498,-0.5505,-0.5506,-0.5508,-0.5529,-0.5534,-0.5537,0,0,0,0,0,0,-0.5538,-0.5527,-0.552,-0.553,-0.5527,-0.5518,-0.5525,-0.5515,-0.5515,-0.5513,-0.55,-0.5498,-0.5507,-0.5503,-0.5495,-0.5512,-0.5499,-0.55,-0.5515,-0.5519,-0.5522,-0.5523,-0.5476,0,0,0,0,0,-0.5544,-0.5547,-0.5538,-0.5547,-0.5546,-0.5536,-0.5537,-0.5529,-0.5525,-0.5524,-0.5517,-0.5514,-0.5516,-0.5517,-0.5518,-0.553,-0.5529,-0.5537,-0.554,-0.5543,-0.5545,-0.5552,-0.5556,-0.5514,-0.5514,-0.5514,0,0,-0.5557,-0.5551,-0.5554,-0.5552,-0.5549,-0.5552,-0.5535,-0.5539,-0.5542,-0.5524,-0.5531,-0.5526,-0.5522,-0.5532,-0.5536,-0.5529,-0.5556,-0.5545,-0.5547,-0.5548,-0.5554,-0.5558,-0.5562,-0.5515,-0.5515,-0.5515,0,0,-0.5581,-0.5577,-0.5586,-0.5583,-0.5578,-0.5571,-0.5573,-0.5566,-0.5562,-0.5569,-0.5556,-0.5559,-0.5561,-0.5559,-0.5558,-0.5583,-0.5573,-0.5583,-0.5601,-0.5608,-0.5611,-0.5614,-0.5623,-0.5627,-0.5585,-0.5585,-0.5585,0,-0.5597,-0.5602,-0.5591,-0.5596,-0.5596,-0.5581,-0.5589,-0.5587,-0.5583,-0.5583,-0.5575,-0.5578,-0.5574,-0.5584,-0.559,-0.559,-0.5592,-0.5584,-0.5611,-0.5614,-0.5617,-0.5625,-0.5629,-0.5587,-0.5586,-0.5586,-0.5586,0,-0.5623,-0.5627,-0.5634,-0.5631,-0.5631,-0.5638,-0.5628,-0.563,-0.5622,-0.5616,-0.5623,-0.5618,-0.5617,-0.5619,-0.5611,-0.5628,-0.5624,-0.5614,-0.56,-0.5622,-0.563,-0.5634,-0.5588,-0.5588,-0.5588,-0.5587,0,0,-0.5661,-0.5652,-0.5655,-0.5653,-0.5648,-0.565,-0.5657,-0.5657,-0.5659,-0.5657,-0.5662,-0.5665,-0.5656,-0.5655,-0.5647,-0.5653,-0.5674,-0.5642,-0.5642,-0.5649,-0.5693,-0.5701,-0.5705,-0.5667,-0.5668,-0.5668,-0.5693,0,-0.5685,-0.5695,-0.5685,-0.5698,-0.5702,-0.5687,-0.5693,-0.569,-0.5685,-0.5687,-0.5681,-0.5684,-0.5671,-0.5671,-0.5676,-0.567,-0.5682,-0.5668,-0.5672,-0.5672,-0.5674,-0.5709,-0.5717,-0.5741,-0.5696,-0.5697,-0.5697,0,-0.5714,-0.5713,-0.5727,-0.5721,-0.5722,-0.5727,-0.5727,-0.5729,-0.5726,-0.5721,-0.5721,-0.5711,-0.5717,-0.5703,-0.5712,-0.5702,-0.5703,-0.5701,-0.5701,-0.5702,-0.5687,-0.5711,-0.5749,-0.5752,-0.5702,-0.5702,-0.5701,0,-0.5741,-0.5744,-0.5752,-0.5752,-0.5745,-0.5749,-0.5746,-0.5742,-0.5743,-0.5742,-0.5743,-0.5743,-0.5743,-0.5744,-0.5735,-0.5725,-0.5745,-0.573,-0.5742,-0.5742,-0.5747,-0.5747,-0.5786,-0.5747,-0.5747,-0.5747,-0.5747,0,-0.5769,-0.5778,-0.5765,-0.577,-0.5779,-0.5768,-0.5778,-0.5774,-0.577,-0.5775,-0.5762,-0.5766,-0.5753,-0.5757,-0.5749,-0.5758,-0.5758,-0.5755,-0.5753,-0.5757,-0.5757,-0.5757,-0.5756,-0.5748,-0.5747,-0.5747,-0.5747,0,-0.5801,-0.5793,-0.5801,-0.5794,-0.5792,-0.58,-0.5794,-0.5799,-0.5793,-0.5798,-0.5799,-0.579,-0.5793,-0.5784,-0.5785,-0.578,-0.5793,-0.5788,-0.5794,-0.5793,-0.5806,-0.5805,-0.5847,-0.5852,-0.5809,-0.581,-0.581,0,-0.582,-0.5826,-0.582,-0.5822,-0.582,-0.5824,-0.5825,-0.5814,-0.5816,-0.5813,-0.5818,-0.582,-0.5821,-0.5827,-0.582,-0.5821,-0.5817,-0.5831,-0.5817,-0.582,-0.5818,-0.5818,-0.5819,-0.5835,-0.5835,-0.5836,-0.5836,0,-0.5854,-0.585,-0.5852,-0.5852,-0.5854,-0.5854,-0.5853,-0.5856,-0.5844,-0.5847,-0.585,-0.5851,-0.5853,-0.5855,-0.5855,-0.5852,-0.5842,-0.5841,-0.5844,-0.5847,-0.5851,-0.585,-0.5803,-0.584,-0.5839,-0.5839,-0.5839,-0.5839,-0.588,-0.5886,-0.5883,-0.5885,-0.5884,-0.5883,-0.5888,-0.5883,-0.5885,-0.5886,-0.5879,-0.5884,-0.5881,-0.588,-0.5878,-0.5882,-0.5875,-0.588,-0.5881,-0.5882,-0.5885,-0.585,-0.5882,-0.5882,-0.5882,-0.5882,-0.5882,0,-0.5915,-0.5912,-0.5915,-0.5914,-0.5916,-0.5907,-0.5906,-0.5909,-0.5913,-0.5911,-0.5913,-0.5917,-0.5919,-0.5913,-0.5915,-0.5919,-0.5914,-0.592,-0.592,-0.5919,-0.589,-0.5888,-0.5923,-0.5923,-0.5923,-0.5923,-0.5923,-0.5923,-0.5933,-0.5942,-0.5937,-0.5945,-0.5942,-0.5947,-0.5947,-0.5947,-0.5946,-0.5951,-0.5953,-0.5949,-0.5946,-0.5947,-0.5949,-0.5947,-0.5949,-0.5956,-0.5952,-0.5925,-0.5921,-0.5917,-0.5915,-0.5956,-0.5956,-0.5981,-0.5981,-0.5982]},{"header":{"parameterUnit":"m.s-1","parameterCategory":1,"la1":30.2991,"la2":30.254,"lo1":-89.0895,"lo2":-89.0444,"dy":0.0017,"dx":0.0017,"nx":28,"ny":28,"refTime":"2025-01-29T09:00:00:Z","depth":0,"parameterNumber":3,"parameterNumberName":"V-component_of_WINDS"},"data":[0,0,0,0,0,0,0,0,0,0,0,0,0,0,0,0,0,0,0,0,0,0,0,0,0,0,0,0,0,0,0,0,0,0,0,0,0,0,0,0,0,0,0,0,0,0,0,0,0,0,0,0,0,0,0,0,0,0,-0.3359,-0.3359,0,-0.3368,-0.3368,-0.3368,-0.336,-0.3359,-0.3359,-0.3359,-0.3368,-0.3369,-0.3369,0,0,0,0,0,0,0,0,0,0,0,0,0,-0.3334,-0.3335,-0.3359,-0.3359,-0.3359,-0.3368,-0.3368,-0.3368,-0.336,-0.3359,-0.3359,-0.3359,-0.3368,-0.3369,-0.3369,0,0,0,0,0,0,0,0,0,0,0,0,0,-0.3344,-0.3335,-0.3359,-0.3356,-0.3356,-0.3368,-0.3368,-0.3368,-0.336,-0.3359,-0.3359,-0.3358,-0.3368,-0.3369,-0.337,-0.3385,0,0,-0.3372,-0.3373,0,0,0,0,0,0,0,0,-0.3344,-0.3345,-0.3356,-0.3356,-0.3356,-0.3362,-0.3363,-0.3374,-0.336,-0.3358,-0.3359,-0.3358,-0.3367,-0.3368,-0.337,-0.3386,-0.3386,-0.3372,-0.3373,-0.3373,-0.3373,0,0,0,0,0,0,0,-0.3343,-0.3345,-0.3363,-0.3356,-0.3356,-0.3354,-0.3355,-0.3365,-0.3365,-0.3358,-0.3358,-0.3359,-0.3367,-0.337,-0.3371,-0.3386,-0.3372,-0.3373,-0.3374,-0.3374,-0.3416,-0.3416,0,0,0,0,0,0,-0.3343,-0.3344,-0.3362,-0.3363,-0.3349,-0.3355,-0.3356,-0.3361,-0.3365,-0.3365,-0.3359,-0.3359,-0.3368,-0.337,-0.3371,-0.3391,-0.3373,-0.3374,-0.3374,-0.3415,-0.3416,-0.3417,0,0,0,0,0,0,-0.3342,-0.3344,-0.3362,-0.3353,-0.3356,-0.3356,-0.3361,-0.3361,-0.3364,-0.3366,-0.3366,-0.3363,-0.3368,-0.337,-0.3382,-0.3391,-0.3374,-0.3375,-0.3415,-0.3416,-0.3416,-0.3429,0,0,0,0,0,0,-0.3342,-0.3344,-0.335,-0.3354,-0.3356,-0.3373,-0.3362,-0.3362,-0.3366,-0.3365,-0.3369,-0.3369,-0.3368,-0.3381,-0.3383,-0.3392,-0.3376,-0.3414,-0.3415,-0.3416,-0.3428,-0.343,-0.3433,0,0,0,0,0,-0.3341,-0.3353,-0.335,-0.3353,-0.3363,-0.3373,-0.3375,-0.3373,-0.3367,-0.3373,-0.3374,-0.3369,-0.3389,-0.3382,-0.3384,-0.3393,-0.3413,-0.3415,-0.3416,-0.3427,-0.343,-0.3432,0,0,0,0,0,0,-0.3351,-0.3354,-0.3351,-0.3365,-0.3369,-0.3372,-0.3379,-0.3376,-0.3382,-0.3381,-0.3378,-0.3379,-0.3392,-0.3394,-0.3386,-0.3409,-0.34,-0.3402,-0.3408,-0.3411,-0.3413,-0.3413,-0.3377,0,0,0,0,0,-0.3354,-0.3362,-0.3364,-0.3376,-0.3379,-0.3379,-0.3383,-0.3381,-0.3385,-0.3387,-0.3389,-0.3393,-0.3401,-0.3406,-0.3412,-0.3428,-0.3429,-0.3435,-0.3438,-0.3439,-0.3441,-0.3451,-0.3454,-0.3421,-0.3421,-0.3421,0,0,-0.3362,-0.3365,-0.337,-0.3378,-0.3381,-0.339,-0.338,-0.3389,-0.3395,-0.3388,-0.34,-0.3402,-0.3407,-0.3421,-0.3427,-0.3423,-0.3451,-0.3441,-0.3443,-0.3444,-0.3452,-0.3455,-0.3458,-0.3422,-0.3422,-0.3422,0,0,-0.3381,-0.3384,-0.3394,-0.3398,-0.3403,-0.3403,-0.3405,-0.3409,-0.341,-0.3422,-0.3417,-0.3424,-0.3437,-0.3441,-0.3444,-0.3465,-0.3461,-0.3467,-0.3479,-0.3488,-0.3491,-0.3493,-0.3502,-0.3505,-0.3469,-0.3469,-0.3469,0,-0.3391,-0.3403,-0.34,-0.341,-0.3414,-0.3408,-0.342,-0.3423,-0.343,-0.3433,-0.3428,-0.3444,-0.3447,-0.3462,-0.3467,-0.347,-0.3473,-0.3467,-0.3491,-0.3493,-0.3495,-0.3503,-0.3506,-0.347,-0.347,-0.347,-0.347,0,-0.3415,-0.3423,-0.3431,-0.3438,-0.3443,-0.3454,-0.3453,-0.3459,-0.3457,-0.3457,-0.347,-0.3473,-0.3481,-0.3484,-0.3482,-0.3499,-0.3497,-0.3491,-0.3482,-0.3499,-0.3507,-0.351,-0.3471,-0.3471,-0.3471,-0.347,0,0,-0.344,-0.3446,-0.3449,-0.3453,-0.3458,-0.3464,-0.3475,-0.3482,-0.3487,-0.3492,-0.3501,-0.3512,-0.3508,-0.3512,-0.351,-0.3518,-0.3535,-0.3511,-0.3511,-0.3517,-0.3556,-0.3561,-0.3564,-0.3532,-0.3533,-0.3533,-0.3556,0,-0.346,-0.3478,-0.3476,-0.3494,-0.3502,-0.3497,-0.3506,-0.351,-0.3511,-0.3518,-0.3519,-0.3528,-0.352,-0.3523,-0.353,-0.3532,-0.3543,-0.353,-0.3542,-0.3542,-0.3541,-0.3568,-0.3573,-0.3594,-0.3559,-0.3559,-0.356,0,-0.3485,-0.3492,-0.351,-0.3514,-0.3518,-0.3526,-0.3533,-0.354,-0.3545,-0.3545,-0.355,-0.3547,-0.3558,-0.3548,-0.3564,-0.3555,-0.3559,-0.3561,-0.3561,-0.3563,-0.3552,-0.3571,-0.3601,-0.3604,-0.3564,-0.3564,-0.3563,0,-0.3503,-0.3516,-0.3529,-0.3532,-0.3537,-0.3543,-0.3546,-0.355,-0.3555,-0.3562,-0.3565,-0.3572,-0.3577,-0.3583,-0.3582,-0.3575,-0.3598,-0.3588,-0.3599,-0.3599,-0.3605,-0.3605,-0.3636,-0.3606,-0.3606,-0.3606,-0.3606,0,-0.3526,-0.3538,-0.3537,-0.3545,-0.3558,-0.3556,-0.3569,-0.3571,-0.3575,-0.3584,-0.3579,-0.3587,-0.3586,-0.3594,-0.3593,-0.3607,-0.3608,-0.3609,-0.3609,-0.361,-0.361,-0.3614,-0.3613,-0.3607,-0.3607,-0.3607,-0.3607,0,-0.3549,-0.3549,-0.3563,-0.3567,-0.3568,-0.3578,-0.3581,-0.3589,-0.3589,-0.36,-0.3603,-0.3604,-0.3613,-0.3613,-0.3624,-0.3623,-0.364,-0.3638,-0.3639,-0.3638,-0.365,-0.3649,-0.3686,-0.3691,-0.3657,-0.3657,-0.3657,0,-0.3564,-0.3573,-0.3578,-0.3583,-0.3586,-0.3595,-0.36,-0.3599,-0.3604,-0.3611,-0.3618,-0.3627,-0.3635,-0.365,-0.3652,-0.366,-0.3659,-0.3671,-0.366,-0.3661,-0.366,-0.366,-0.3661,-0.3673,-0.3673,-0.3674,-0.3674,0,-0.3591,-0.3591,-0.3598,-0.3606,-0.3613,-0.3619,-0.3624,-0.3629,-0.3628,-0.3635,-0.3645,-0.365,-0.3662,-0.3671,-0.3679,-0.3682,-0.3678,-0.3677,-0.3681,-0.3682,-0.3683,-0.3684,-0.3645,-0.3677,-0.3676,-0.3676,-0.3676,-0.3676,-0.3611,-0.3619,-0.3624,-0.3633,-0.3637,-0.3643,-0.365,-0.3652,-0.366,-0.3669,-0.3668,-0.3679,-0.3684,-0.3695,-0.3698,-0.3707,-0.3703,-0.3707,-0.3709,-0.371,-0.3712,-0.3681,-0.3708,-0.3708,-0.3708,-0.3708,-0.3708,0,-0.3638,-0.3641,-0.365,-0.3658,-0.3665,-0.3661,-0.3667,-0.3674,-0.3683,-0.3689,-0.3696,-0.3708,-0.3717,-0.3719,-0.3728,-0.3735,-0.3734,-0.3738,-0.3738,-0.3739,-0.3714,-0.3711,-0.3739,-0.3739,-0.3739,-0.3739,-0.3739,-0.3739,-0.3653,-0.3667,-0.3668,-0.3683,-0.3686,-0.3698,-0.3702,-0.3707,-0.3711,-0.3724,-0.3732,-0.3734,-0.3738,-0.3748,-0.3756,-0.3757,-0.3761,-0.3765,-0.3765,-0.3743,-0.374,-0.3737,-0.3734,-0.3766,-0.3766,-0.3789,-0.3789,-0.3789]}]]